| time (UTC) | temp F | wind direction | speed MPH | gust MPH | rain 1hr in | rain 24hr in | rain mn in | humidity % | barometer mb |
| 20260504215115 | 76 | 66 | 1.0 | 1.0 | 0.00 | 0.00 | 0.21 | 91 | 1006.0 |
| 20260504214614 | 76 | 69 | 2.0 | 2.0 | 0.00 | 0.00 | 0.21 | 91 | 1006.0 |
| 20260504214114 | 75 | 60 | 2.0 | 2.0 | 0.00 | 0.00 | 0.21 | 91 | 1006.0 |
| 20260504213614 | 75 | 62 | 1.0 | 1.0 | 0.00 | 0.00 | 0.21 | 91 | 1006.0 |
| 20260504213114 | 75 | 73 | 2.0 | 3.0 | 0.00 | 0.00 | 0.21 | 91 | 1006.0 |
| 20260504212615 | 75 | 58 | 1.0 | 1.0 | 0.00 | 0.00 | 0.21 | 91 | 1006.0 |
| 20260504212114 | 75 | 59 | 2.0 | 2.0 | 0.00 | 0.00 | 0.21 | 91 | 1006.0 |
| 20260504211616 | 75 | 58 | 1.0 | 1.0 | 0.07 | 0.00 | 0.21 | 91 | 1006.0 |
| 20260504211114 | 75 | 51 | 2.0 | 3.0 | 0.07 | 0.00 | 0.21 | 91 | 1006.0 |
| 20260504210614 | 75 | 56 | 1.0 | 1.0 | 0.07 | 0.00 | 0.21 | 90 | 1006.0 |
| 20260504210114 | 75 | 53 | 1.0 | 1.0 | 0.00 | 0.00 | 0.20 | 90 | 1006.0 |
| 20260504205615 | 75 | 59 | 1.0 | 1.0 | 0.05 | 0.00 | 0.20 | 90 | 1006.0 |
| 20260504205114 | 75 | 59 | 1.0 | 1.0 | 0.05 | 0.00 | 0.20 | 90 | 1006.0 |
| 20260504204614 | 75 | 70 | 1.0 | 1.0 | 0.07 | 0.00 | 0.19 | 90 | 1006.0 |
| 20260504204115 | 75 | 43 | 4.0 | 5.0 | 0.12 | 0.00 | 0.19 | 90 | 1007.0 |
| 20260504203615 | 75 | 65 | 1.0 | 1.0 | 0.05 | 0.00 | 0.18 | 90 | 1007.0 |
| 20260504203114 | 75 | 61 | 1.0 | 1.0 | 0.07 | 0.00 | 0.17 | 90 | 1007.0 |
| 20260504202615 | 75 | 54 | 4.0 | 6.0 | 0.12 | 0.00 | 0.17 | 90 | 1007.0 |
| 20260504202114 | 75 | 48 | 3.0 | 3.0 | 0.12 | 0.00 | 0.16 | 90 | 1007.0 |
| 20260504201614 | 75 | 52 | 1.0 | 2.0 | 0.19 | 0.00 | 0.15 | 90 | 1007.0 |
| 20260504201114 | 75 | 27 | 3.0 | 6.0 | 0.19 | 0.00 | 0.14 | 90 | 1007.0 |
| 20260504200615 | 75 | 65 | 2.0 | 2.0 | 0.12 | 0.00 | 0.12 | 90 | 1007.0 |
| 20260504200115 | 75 | 60 | 2.0 | 2.0 | 0.12 | 0.00 | 0.11 | 90 | 1007.0 |
| 20260504195615 | 75 | 62 | 1.0 | 2.0 | 0.19 | 0.00 | 0.10 | 90 | 1007.0 |
| 20260504195114 | 75 | 52 | 3.0 | 3.0 | 0.17 | 0.00 | 0.09 | 90 | 1007.0 |
| 20260504160115 | 85 | 100 | 2.0 | 2.0 | 0.00 | 0.00 | 0.00 | 76 | 1008.0 |
| 20260504151115 | 85 | 57 | 1.0 | 1.0 | 0.00 | 0.00 | 0.00 | 73 | 1006.0 |
| 20260504150614 | 85 | 54 | 1.0 | 1.0 | 0.00 | 0.00 | 0.00 | 73 | 1006.0 |
| 20260504150117 | 85 | 40 | 3.0 | 3.0 | 0.00 | 0.00 | 0.00 | 73 | 1006.0 |
| 20260504141115 | 86 | 63 | 2.0 | 3.0 | 0.00 | 0.00 | 0.00 | 73 | 1005.0 |
| 20260504140615 | 86 | 10 | 4.0 | 7.0 | 0.00 | 0.00 | 0.00 | 73 | 1005.0 |
| 20260504140115 | 87 | 20 | 1.0 | 3.0 | 0.00 | 0.00 | 0.00 | 73 | 1005.0 |
| 20260504130615 | 88 | 51 | 1.0 | 2.0 | 0.00 | 0.00 | 0.00 | 72 | 1004.0 |
| 20260504130116 | 88 | 54 | 1.0 | 1.0 | 0.00 | 0.00 | 0.00 | 71 | 1004.0 |
| 20260504120114 | 92 | 62 | 2.0 | 2.0 | 0.00 | 0.00 | 0.00 | 69 | 1003.0 |
| 20260504110615 | 95 | 60 | 0.0 | 0.0 | 0.00 | 0.00 | 0.00 | 57 | 1003.0 |
| 20260504110114 | 96 | 46 | 2.0 | 2.0 | 0.00 | 0.00 | 0.00 | 55 | 1003.0 |
| 20260504100614 | 96 | 45 | 2.0 | 2.0 | 0.00 | 0.00 | 0.00 | 55 | 1003.0 |
| 20260504100114 | 95 | 61 | 1.0 | 1.0 | 0.00 | 0.00 | 0.00 | 56 | 1003.0 |
| 20260504090114 | 95 | 47 | 3.0 | 5.0 | 0.00 | 0.00 | 0.00 | 57 | 1004.0 |
| 20260504081615 | 93 | 42 | 5.0 | 6.0 | 0.00 | 0.00 | 0.00 | 59 | 1005.0 |
| 20260504081115 | 94 | 36 | 4.0 | 6.0 | 0.00 | 0.00 | 0.00 | 59 | 1005.0 |
| 20260504080615 | 95 | 29 | 3.0 | 3.0 | 0.00 | 0.00 | 0.00 | 57 | 1005.0 |
| 20260504080115 | 95 | 57 | 3.0 | 5.0 | 0.00 | 0.00 | 0.00 | 57 | 1005.0 |
| 20260504070114 | 94 | 64 | 1.0 | 1.0 | 0.00 | 0.00 | 0.00 | 53 | 1007.0 |
| 20260504060114 | 91 | 228 | 4.0 | 5.0 | 0.00 | 0.00 | 0.00 | 59 | 1008.0 |
| 20260504050614 | 90 | 216 | 6.0 | 7.0 | 0.00 | 0.00 | 0.00 | 60 | 1008.0 |
| 20260504050114 | 91 | 257 | 5.0 | 6.0 | 0.00 | 0.00 | 0.00 | 58 | 1009.0 |
| 20260504045614 | 89 | 154 | 4.0 | 5.0 | 0.00 | 0.00 | 0.00 | 60 | 1008.0 |
| 20260504045114 | 89 | 236 | 4.0 | 6.0 | 0.00 | 0.00 | 0.00 | 61 | 1009.0 |
| 20260504044614 | 89 | 209 | 5.0 | 8.0 | 0.00 | 0.00 | 0.00 | 60 | 1009.0 |
| 20260504044115 | 90 | 59 | 3.0 | 5.0 | 0.00 | 0.00 | 0.00 | 59 | 1009.0 |
| 20260504043618 | 89 | 84 | 1.0 | 1.0 | 0.00 | 0.00 | 0.00 | 60 | 1009.0 |
| 20260504043114 | 90 | 278 | 4.0 | 5.0 | 0.00 | 0.00 | 0.00 | 59 | 1009.0 |
| 20260504042614 | 90 | 64 | 2.0 | 2.0 | 0.00 | 0.00 | 0.00 | 59 | 1009.0 |
| 20260504042114 | 89 | 277 | 4.0 | 6.0 | 0.00 | 0.00 | 0.00 | 60 | 1009.0 |
| 20260504041615 | 89 | 244 | 4.0 | 5.0 | 0.00 | 0.00 | 0.00 | 60 | 1009.0 |
| 20260504041114 | 88 | 69 | 3.0 | 6.0 | 0.00 | 0.00 | 0.00 | 62 | 1009.0 |
| 20260504040614 | 88 | 166 | 4.0 | 5.0 | 0.00 | 0.00 | 0.00 | 62 | 1009.0 |
| 20260504040114 | 88 | 70 | 3.0 | 5.0 | 0.00 | 0.00 | 0.00 | 61 | 1009.0 |
| 20260504035614 | 89 | 59 | 2.0 | 3.0 | 0.00 | 0.00 | 0.00 | 60 | 1009.0 |
| 20260504035114 | 89 | 207 | 5.0 | 8.0 | 0.00 | 0.00 | 0.00 | 59 | 1009.0 |
| 20260504034614 | 89 | 59 | 2.0 | 3.0 | 0.00 | 0.00 | 0.00 | 58 | 1009.0 |
| 20260504034114 | 90 | 105 | 2.0 | 2.0 | 0.00 | 0.00 | 0.00 | 55 | 1009.0 |
| 20260504033615 | 90 | 164 | 5.0 | 6.0 | 0.00 | 0.00 | 0.00 | 55 | 1009.0 |
| 20260504032635 | 88 | 337 | 3.0 | 3.0 | 0.00 | 0.00 | 0.00 | 56 | 1008.0 |
| 20260504032114 | 88 | 111 | 3.0 | 3.0 | 0.00 | 0.00 | 0.00 | 59 | 1008.0 |
| 20260504031614 | 89 | 110 | 2.0 | 2.0 | 0.00 | 0.00 | 0.00 | 56 | 1008.0 |
| 20260504031115 | 90 | 52 | 1.0 | 1.0 | 0.00 | 0.00 | 0.00 | 54 | 1008.0 |
| 20260504030614 | 90 | 52 | 0.0 | 0.0 | 0.00 | 0.00 | 0.00 | 53 | 1008.0 |
| 20260504030115 | 89 | 52 | 0.0 | 1.0 | 0.00 | 0.00 | 0.00 | 55 | 1008.0 |
| 20260504025615 | 88 | 52 | 0.0 | 1.0 | 0.00 | 0.00 | 0.00 | 56 | 1008.0 |
| 20260504025114 | 88 | 52 | 0.0 | 0.0 | 0.00 | 0.00 | 0.00 | 57 | 1008.0 |
| 20260504024614 | 88 | 52 | 1.0 | 1.0 | 0.00 | 0.00 | 0.00 | 59 | 1007.0 |
| 20260504024114 | 87 | 53 | 1.0 | 1.0 | 0.00 | 0.00 | 0.00 | 61 | 1007.0 |
| 20260504023614 | 86 | 49 | 2.0 | 2.0 | 0.00 | 0.00 | 0.00 | 62 | 1007.0 |
| 20260504023115 | 86 | 67 | 5.0 | 5.0 | 0.00 | 0.00 | 0.00 | 62 | 1007.0 |
| 20260504022614 | 85 | 72 | 1.0 | 2.0 | 0.00 | 0.00 | 0.00 | 63 | 1007.0 |
| 20260504022114 | 85 | 71 | 2.0 | 2.0 | 0.00 | 0.00 | 0.00 | 65 | 1007.0 |
| 20260504021614 | 85 | 68 | 2.0 | 2.0 | 0.00 | 0.00 | 0.00 | 64 | 1007.0 |
| 20260504021115 | 84 | 72 | 1.0 | 2.0 | 0.00 | 0.00 | 0.00 | 66 | 1007.0 |
| 20260504020614 | 84 | 57 | 0.0 | 0.0 | 0.00 | 0.00 | 0.00 | 69 | 1007.0 |
| 20260504020114 | 83 | 58 | 2.0 | 2.0 | 0.00 | 0.00 | 0.00 | 69 | 1007.0 |
| 20260504015615 | 82 | 61 | 1.0 | 2.0 | 0.00 | 0.00 | 0.00 | 70 | 1007.0 |
| 20260504015114 | 82 | 74 | 3.0 | 3.0 | 0.00 | 0.00 | 0.00 | 71 | 1007.0 |
| 20260504014615 | 82 | 72 | 1.0 | 1.0 | 0.00 | 0.00 | 0.00 | 71 | 1007.0 |
| 20260504014114 | 82 | 71 | 1.0 | 1.0 | 0.00 | 0.00 | 0.00 | 72 | 1007.0 |
| 20260504013614 | 82 | 69 | 1.0 | 1.0 | 0.00 | 0.00 | 0.00 | 71 | 1007.0 |
| 20260504013115 | 82 | 70 | 0.0 | 0.0 | 0.00 | 0.00 | 0.00 | 71 | 1007.0 |
| 20260504012615 | 81 | 70 | 1.0 | 1.0 | 0.00 | 0.00 | 0.00 | 71 | 1007.0 |
| 20260504012114 | 81 | 69 | 1.0 | 1.0 | 0.00 | 0.00 | 0.00 | 72 | 1007.0 |
| 20260504011614 | 81 | 68 | 0.0 | 0.0 | 0.00 | 0.00 | 0.00 | 72 | 1007.0 |
| 20260504011115 | 81 | 68 | 1.0 | 1.0 | 0.00 | 0.00 | 0.00 | 71 | 1006.0 |
| 20260504010614 | 80 | 69 | 1.0 | 1.0 | 0.00 | 0.00 | 0.00 | 71 | 1006.0 |
| 20260504010114 | 80 | 65 | 0.0 | 1.0 | 0.00 | 0.00 | 0.00 | 72 | 1006.0 |
| 20260504005614 | 80 | 58 | 1.0 | 2.0 | 0.00 | 0.00 | 0.00 | 73 | 1006.0 |
| 20260504005114 | 80 | 58 | 2.0 | 2.0 | 0.00 | 0.00 | 0.00 | 73 | 1006.0 |
| 20260504004615 | 80 | 55 | 1.0 | 2.0 | 0.00 | 0.00 | 0.00 | 73 | 1006.0 |
| 20260504004114 | 79 | 59 | 0.0 | 1.0 | 0.00 | 0.00 | 0.00 | 74 | 1006.0 |
| 20260504003614 | 80 | 44 | 2.0 | 2.0 | 0.00 | 0.00 | 0.00 | 73 | 1006.0 |
| 20260504003114 | 80 | 52 | 1.0 | 2.0 | 0.00 | 0.00 | 0.00 | 72 | 1006.0 |
| 20260504002615 | 80 | 35 | 3.0 | 3.0 | 0.00 | 0.00 | 0.00 | 72 | 1006.0 |
| 20260504002115 | 80 | 41 | 1.0 | 1.0 | 0.00 | 0.00 | 0.00 | 72 | 1006.0 |
| 20260504001614 | 80 | 40 | 1.0 | 2.0 | 0.00 | 0.00 | 0.00 | 72 | 1006.0 |
| 20260504001114 | 80 | 42 | 2.0 | 2.0 | 0.00 | 0.00 | 0.00 | 72 | 1006.0 |
| 20260504000614 | 80 | 42 | 1.0 | 2.0 | 0.00 | 0.00 | 0.00 | 72 | 1006.0 |